RH
57 61 67 57 48 52 49 44 46 52 40 31 34 45 50 43 43 54 48 43 41 41 43 40 38 38 38 37 35 33 32 31 31 31 30 30 31 33 38 44 47 46 44 41
53 58 62 56 54 49 47 49 50 51 44 31 40 42 49 50 44 44 48 49 42 41 44 42 40 39 38 38 36 35 33 32 32 34 36 37 38 40 44 46 48 48 44 41
45 54 64 60 57 54 56 45 50 45 49 38 35 37 47 58 53 48 44 44 45 44 43 42 42 40 39 38 39 38 36 34 36 37 38 41 47 49 48 46 46 46 45 46
38 50 56 60 56 59 51 58 50 51 42 41 34 32 45 65 64 53 52 47 43 40 37 38 40 41 42 43 42 43 44 43 42 44 46 51 54 54 52 50 47 46 46 43
37 41 47 48 67 56 52 59 58 52 56 44 44 31 42 61 66 63 55 57 55 53 52 52 50 50 53 54 51 48 50 54 55 58 59 60 62 61 57 47 43 40 37 37
41 38 50 61 71 75 62 60 68 63 54 40 63 55 40 56 56 69 64 63 69 70 64 58 55 55 56 57 57 54 54 56 56 56 56 55 53 50 47 44 40 38 38 38
36 43 42 47 61 81 85 69 61 62 67 57 75 62 49 49 56 54 58 64 62 61 61 59 56 54 52 51 51 50 51 56 62 63 59 53 49 46 45 44 43 43 42 41
40 43 43 49 50 51 71 86 71 59 65 60 60 50 55 58 54 57 53 57 60 65 65 64 63 61 60 61 64 67 68 68 64 60 57 56 55 56 54 49 47 45 44 43
49 45 44 47 46 48 50 64 79 64 50 50 49 50 50 48 44 46 51 54 61 58 71 76 75 77 81 80 80 78 76 73 70 66 65 65 64 64 62 54 50 52 50 49
61 46 54 58 54 49 46 48 51 49 40 42 34 35 40 41 42 42 44 46 47 52 53 57 63 66 71 72 71 67 66 66 69 68 63 59 58 58 57 53 52 52 55 58
84 72 68 70 66 58 61 59 54 48 44 38 30 28 34 38 36 37 38 37 38 39 38 40 41 44 45 46 48 49 51 52 54 55 53 52 54 60 65 66 66 65 68 70
60 58 65 78 81 81 78 78 71 57 47 47 46 40 38 36 34 34 33 32 33 33 35 35 34 35 36 37 36 36 39 42 44 49 54 56 58 59 64 68 72 78 92 92
47 45 42 42 41 42 50 62 67 71 71 60 56 48 41 39 42 42 41 40 41 40 42 43 44 42 41 44 42 41 38 42 42 47 51 56 62 72 74 77 83 89 92 93
38 39 43 40 41 37 37 33 39 44 45 48 52 57 56 53 50 46 46 46 47 49 53 54 51 51 50 53 57 60 64 68 65 69 68 72 76 80 82 84 88 90 93 100
32 29 31 33 35 31 30 33 38 41 39 36 34 35 37 37 36 36 45 47 47 49 52 51 53 55 60 61 60 61 63 65 64 63 70 76 80 77 72 68 68 74 76 78
25 21 18 21 21 22 21 22 30 34 40 39 37 35 32 32 30 27 27 31 32 32 38 49 51 53 59 65 74 76 73 69 72 75 79 81 75 74 90 90 81 89 90 86
25 19 17 14 13 13 12 13 14 16 20 24 26 28 34 37 36 32 34 29 29 28 31 27 34 34 46 58 62 64 65 65 69 72 75 71 72 78 85 90 90 91 81 68
16 14 11 10 9 8 8 9 9 9 10 13 16 18 22 28 33 34 36 37 34 29 28 27 28 30 35 38 39 37 36 34 36 35 39 38 36 36 41 45 49 50 51 40
13 12 12 10 10 9 10 9 9 8 9 9 9 11 13 15 17 19 22 24 31 30 33 31 29 28 23 28 40 53 62 54 48 40 36 39 40 43 47 48 51 58 56 48
12 11 10 9 9 9 10 10 9 8 9 9 10 9 9 11 12 13 14 15 17 20 21 25 33 37 39 34 33 39 49 63 71 72 64 61 62 62 59 59 61 59 59 65
9 7 7 7 7 7 7 7 7 7 8 9 9 10 11 11 11 10 11 13 14 14 14 14 15 16 20 24 26 27 29 34 42 48 52 52 50 48 46 42 39 37 39 38
8 7 7 6 6 6 7 8 8 8 9 10 10 11 11 12 12 13 12 12 12 14 15 16 16 16 15 15 16 16 17 18 20 21 21 21 20 20 20 21 20 20 22 20
9 9 9 8 8 8 8 8 9 9 9 10 10 10 11 12 13 14 15 14 14 13 12 12 13 14 14 14 14 14 14 14 13 13 13 13 12 12 12 13 14 14 14 14
10 10 10 9 9 9 8 8 8 8 8 8 9 9 10 10 10 10 10 11 11 11 12 12 11 11 11 11 11 11 12 12 12 12 12 11 11 11 11 11 12 12 12 12
10 10 10 10 10 10 9 8 8 7 8 7 7 7 7 8 8 8 8 8 8 9 9 9 10 10 10 10 10 9 9 9 9 10 9 9 9 9 8 8 8 8 8 8
11 11 11 10 11 10 10 10 10 9 8 8 9 8 8 8 7 7 7 7 7 7 7 7 7 7 7 7 7 7 6 6 7 7 7 7 7 7 7 8 9 9 10 10
Wind_Speed
47 47 56 59 53 53 51 49 48 53 53 50 50 48 53 53 50 51 53 52 51 50 51 49 49 49 51 52 50 50 49 48 48 47 46 47 47 46 44 44 44 45 45 44
53 51 59 57 57 56 56 57 55 57 59 51 53 50 51 56 57 57 57 59 57 55 57 56 55 55 56 56 56 56 54 52 52 52 51 50 50 49 48 47 47 49 50 49
58 58 62 61 62 59 59 60 63 62 64 59 57 51 53 59 63 64 65 63 64 63 61 60 60 61 61 61 61 61 60 57 58 56 55 54 54 53 52 51 52 54 55 55
60 65 67 66 64 69 60 67 67 66 68 64 64 55 56 63 68 70 68 68 68 70 68 66 66 65 65 66 65 65 64 62 61 60 59 57 58 58 58 58 59 61 61 61
68 70 71 69 72 74 66 71 71 72 71 69 64 69 63 66 68 71 71 72 73 73 73 72 71 70 70 70 70 70 68 66 65 64 64 64 65 65 65 65 67 68 68 69
71 72 74 76 77 80 78 78 80 78 77 73 67 77 72 70 69 73 75 76 78 77 76 76 77 76 76 75 74 74 72 71 71 71 70 71 73 72 73 74 75 75 75 75
67 73 77 81 83 85 88 87 88 87 84 80 80 85 80 73 73 77 79 79 80 81 81 80 81 81 82 81 79 79 79 79 78 78 78 79 80 80 80 81 83 84 83 82
71 70 76 81 86 88 91 96 95 97 96 93 90 90 86 85 82 82 84 83 85 87 88 87 86 88 89 89 90 90 89 88 87 87 87 88 88 88 89 90 90 91 90 88
77 72 76 82 85 89 90 96 104 105 103 103 98 96 96 94 91 89 90 91 91 92 93 95 95 95 97 98 98 97 97 96 96 96 96 97 98 97 97 97 96 95 94 92
85 81 82 83 87 88 94 96 100 103 103 105 100 102 104 102 102 99 98 98 99 100 99 99 100 101 102 104 105 105 104 105 105 104 104 104 104 103 103 100 100 99 98 97
90 92 83 88 90 94 99 101 102 105 107 105 100 97 98 103 106 106 106 106 108 109 109 109 109 108 107 109 110 110 111 111 110 110 110 109 107 105 103 102 102 101 101 100
95 98 90 89 92 101 104 108 109 112 110 110 109 109 102 104 105 106 107 107 109 111 114 115 115 115 114 114 115 115 115 114 113 112 111 110 109 107 106 105 104 103 104 104
100 103 102 95 96 101 109 111 112 115 117 116 120 119 113 111 112 112 112 113 113 113 114 115 116 116 115 115 115 114 114 114 113 112 111 111 111 110 109 108 107 106 106 105
103 104 108 106 103 105 109 113 114 118 120 119 120 121 120 118 117 118 119 121 121 120 120 120 120 119 119 117 117 117 116 117 117 116 115 115 114 113 112 111 110 109 107 107
105 105 107 107 110 115 114 113 116 120 122 123 122 125 125 124 125 124 123 123 123 124 126 127 127 126 125 125 125 125 125 125 123 121 119 119 118 119 119 119 118 115 114 113
108 104 107 105 111 115 115 113 116 120 125 127 127 126 125 125 126 126 125 124 127 129 130 130 130 129 129 128 128 128 127 128 125 125 124 123 124 123 123 124 124 122 122 122
111 113 115 109 113 114 111 111 113 116 121 127 129 130 131 129 129 125 124 124 122 123 127 133 133 134 133 132 133 133 134 133 133 132 133 132 130 130 129 129 130 129 129 128
110 113 114 109 111 109 108 107 107 109 112 117 122 125 127 129 136 131 128 127 128 125 124 126 124 127 131 134 135 135 136 135 135 134 133 133 131 129 128 125 124 124 122 116
102 102 102 101 100 99 100 101 101 102 105 108 113 118 122 126 128 129 130 132 131 134 129 131 128 128 125 121 122 125 128 130 130 130 127 124 123 121 120 120 118 120 122 121
93 93 94 92 92 91 94 96 97 98 100 102 104 106 110 115 121 122 125 127 129 132 131 130 133 134 135 134 131 129 129 129 131 132 133 132 131 131 131 130 130 128 128 129
88 85 83 82 84 82 83 87 90 91 93 96 98 101 105 108 110 113 115 119 122 124 125 127 130 132 133 135 136 136 135 135 136 138 139 140 141 140 140 139 138 138 138 137
80 80 79 76 76 75 77 77 79 82 85 89 91 94 97 100 103 107 109 111 113 118 121 123 125 126 127 128 130 132 133 134 135 137 138 139 139 138 137 136 135 134 134 134
71 70 69 69 70 69 69 70 72 75 77 80 83 85 89 93 97 100 104 106 108 110 113 115 116 119 122 122 123 124 126 126 127 127 128 129 129 129 129 128 128 128 128 127
64 64 64 65 66 66 66 66 68 69 71 73 77 80 83 87 89 92 95 99 101 104 106 109 110 112 114 115 116 117 118 119 120 121 122 122 122 123 122 122 122 121 121 120
60 60 59 60 60 61 62 63 64 65 66 69 70 72 76 79 83 85 89 91 93 96 97 99 100 102 105 106 107 108 107 107 109 110 111 112 112 113 112 112 111 110 111 110
55 54 54 54 55 56 57 59 61 65 64 65 68 70 71 73 76 79 81 84 86 88 90 92 94 96 98 100 101 103 102 102 102 104 105 105 105 106 106 106 106 105 104 105
Wind_Direction
235 237 242 242 241 243 243 243 245 248 247 244 244 245 255 254 251 257 258 255 254 255 261 262 264 266 269 271 273 274 275 278 279 280 281 281 278 277 277 279 281 284 286 288
238 239 246 245 245 245 245 245 248 250 250 244 246 247 256 261 257 255 257 260 259 259 262 264 265 267 269 272 273 274 275 276 278 279 280 279 277 277 278 279 282 284 286 287
241 243 249 248 248 246 247 247 249 248 253 250 246 244 253 259 260 261 258 258 260 260 262 264 266 268 270 272 274 275 275 277 278 278 278 277 277 278 279 281 282 283 285 286
244 248 250 252 254 251 247 252 250 252 251 252 250 241 248 254 257 259 266 265 266 267 267 267 268 269 271 272 273 274 276 277 278 278 278 277 277 278 279 280 281 282 283 286
250 250 253 254 255 257 253 255 254 252 254 251 254 251 244 250 257 259 260 263 263 263 265 267 269 269 270 272 273 274 276 276 276 276 276 276 276 277 279 280 281 282 284 285
252 253 254 255 257 258 256 255 257 256 255 251 254 255 248 249 253 259 261 263 264 265 267 268 270 270 270 269 270 271 272 272 272 273 275 277 277 278 278 279 281 283 284 284
257 257 257 256 256 258 259 258 257 257 258 256 254 254 253 250 250 253 258 259 262 264 267 269 270 271 272 273 273 273 272 271 272 274 275 275 276 277 279 280 282 283 284 284
259 260 261 261 260 258 258 259 260 260 257 256 255 254 254 254 253 252 253 256 260 263 265 265 267 269 270 271 271 272 273 274 274 275 275 277 278 279 280 281 282 283 283 283
258 255 257 260 262 263 262 262 260 262 260 257 257 257 257 257 255 254 256 257 257 256 262 266 267 268 270 272 273 274 274 275 275 276 277 278 279 281 282 282 282 282 282 282
262 258 258 259 261 262 263 262 263 264 262 262 260 260 261 260 259 258 258 258 259 260 260 260 262 264 267 270 272 274 276 277 277 278 278 279 279 280 280 281 281 282 281 281
262 262 259 261 263 263 262 262 262 263 265 266 264 261 262 263 262 262 262 261 261 261 261 262 263 263 263 265 268 271 272 273 275 276 278 278 278 278 278 278 279 279 279 279
268 265 260 258 262 264 264 264 264 265 265 265 264 263 261 263 264 264 264 264 264 264 265 264 264 264 265 265 265 266 269 271 272 274 275 275 275 276 276 276 276 277 277 277
268 269 268 264 262 261 262 262 264 266 266 266 266 266 266 264 263 263 264 265 265 265 266 266 267 268 268 269 269 270 270 271 271 272 273 274 274 275 275 275 274 274 274 275
269 268 268 267 264 262 263 265 264 264 264 264 265 267 267 266 265 265 265 264 265 265 266 267 267 268 269 269 269 270 270 271 272 272 272 272 273 273 272 272 272 272 272 273
270 269 268 267 266 265 264 263 264 265 266 266 265 264 263 264 265 265 264 265 265 266 266 266 266 266 267 268 269 270 270 270 269 270 270 270 270 271 271 271 272 273 273 272
275 274 271 270 269 266 266 266 263 262 263 264 265 265 265 265 265 264 263 264 265 264 265 266 267 267 267 267 268 269 269 270 271 272 271 270 271 272 272 272 273 273 274 274
278 278 277 275 273 272 270 268 265 263 262 263 263 263 263 264 264 263 264 265 265 265 266 264 263 264 264 265 266 267 268 269 270 271 272 272 273 273 273 272 272 271 271 272
278 277 277 276 275 274 273 270 267 265 263 262 262 262 262 261 262 263 263 264 265 265 265 266 265 266 266 265 265 265 266 267 268 268 269 270 270 270 270 271 272 273 273 272
278 277 276 274 273 274 273 271 268 266 264 262 261 261 261 262 261 261 261 263 264 266 267 268 268 269 268 267 267 269 270 272 273 274 274 274 274 275 275 275 274 275 276 275
279 277 275 274 273 272 270 269 268 267 266 265 263 262 262 262 262 262 263 263 263 264 265 264 265 265 267 270 269 267 268 270 271 272 273 273 273 273 273 274 274 274 274 274
284 281 278 277 276 273 269 268 269 269 266 266 265 264 264 263 263 263 263 263 264 264 265 266 266 266 265 266 266 267 267 267 267 268 269 270 270 271 271 271 271 271 271 271
284 283 281 279 276 274 273 271 269 268 267 267 266 265 265 265 265 265 265 265 264 265 265 266 266 266 267 268 268 268 268 268 268 268 269 269 270 271 271 272 272 272 272 272
285 284 283 282 279 277 274 272 270 268 267 266 265 264 264 265 264 265 265 265 265 265 265 265 265 266 266 267 267 267 268 269 270 270 271 271 271 271 271 272 272 272 271 271
287 285 283 281 280 279 277 274 272 270 268 267 267 267 267 267 267 267 266 267 267 268 268 268 269 269 269 269 268 268 269 269 269 270 270 271 271 271 271 272 271 271 271 271
287 286 284 283 282 281 280 279 278 276 275 274 272 270 270 269 269 269 268 268 268 269 269 269 270 270 270 270 271 270 270 270 270 270 270 271 271 271 271 270 270 270 270 270
289 289 288 287 286 285 284 283 282 281 280 277 276 276 274 274 273 272 271 270 270 270 269 269 269 269 269 270 270 271 271 270 270 270 270 270 270 270 270 271 271 270 269 269